Skip Page Navigation
NASA JPL Caltech
NASA Logo - Jet Propulsion Laboratory + View the NASA Portal
+ Center for Near-Earth Object Studies
JPL Home Earth Solar System Stars & Galaxies Technology
JPL Solar System Dynamics
BODIES ORBITS EPHEMERIDES TOOLS PHYSICAL DATA DISCOVERY FAQ SITE MAP
IMPORTANT: The SSD Announcement email list is now available. Major changes are coming in the near future, including possible hostname and/or URL changes. To be notified of such changes, subscribe to this email list.

Please visit this page for more details.


JPL Small-Body Database Browser
Search: [ help ]  
34533 (2000 SS213)
Classification: Main-belt Asteroid          SPK-ID: 2034533
Ephemeris | Orbit Diagram | Orbital Elements | Mission Design | Physical Parameters | Discovery Circumstances | Close-Approach Data ]

[ show orbit diagram ]
Orbital Elements at Epoch 2458600.5 (2019-Apr-27.0) TDB
Reference: JPL 20 (heliocentric ecliptic J2000)
 Element Value Uncertainty (1-sigma)   Units 
e .08281745364813473 4.8332e-08  
a 3.057341871292629 2.2752e-08 au
q 2.80414060258035 1.4528e-07 au
i 10.66068754454576 4.9971e-06 deg
node 94.46921479331345 2.6655e-05 deg
peri 347.6378155979307 3.9248e-05 deg
M 121.8615054626437 2.9873e-05 deg
tp 2457939.534987173985
(2017-Jul-05.03498717)
0.00016043 TDB
period 1952.605162015725
5.35
2.1796e-05
5.967e-08
d
yr
n .1843690711277045 2.0581e-09 deg/d
Q 3.310543140004908 2.4636e-08 au
  Orbit Determination Parameters
   # obs. used (total)      986  
   data-arc span      8517 days (23.32 yr)  
   first obs. used      1996-01-15  
   last obs. used      2019-05-11  
   planetary ephem.      DE431  
   SB-pert. ephem.      SB431-N16  
   condition code      0  
   norm. resid. RMS      .48709  
   source      ORB  
   producer      Otto Matic  
   solution date      2019-May-30 03:51:46  

Additional Information
 Earth MOID = 1.8212 au 
 Jupiter MOID = 1.89444 au 
 T_jup = 3.203 
[ show covariance matrix ]

Ephemeris | Orbit Diagram | Orbital Elements | Mission Design | Physical Parameters | Discovery Circumstances | Close-Approach Data ]

Physical Parameter Table
Parameter Symbol Value Units Sigma Reference Notes
absolute magnitude H 14.0   n/a MPO302266  
diameter diameter 6.222 km 0.264 urn:nasa:pds:neowise_diameters_albedos::2.0[mainbelt] (http://adsabs.harvard.edu/abs/2011ApJ...741...68M)  
geometric albedo albedo 0.095   0.012 urn:nasa:pds:neowise_diameters_albedos::2.0[mainbelt] (http://adsabs.harvard.edu/abs/2011ApJ...741...68M)  

34533 (2000 SS213)          Discovered 2000-Sep-25 by LINEAR at Socorro
Reference: 20020128/Numbers.arcLast Updated: 2004-04-19

[ show close-approach data ]
Alternate Designations
 2000 SS213 = 1998 MX4 
Ephemeris | Orbit Diagram | Orbital Elements | Mission Design | Physical Parameters | Discovery Circumstances | Close-Approach Data ]
ABOUT SSD CREDITS/AWARDS PRIVACY/COPYRIGHT GLOSSARY LINKS
FirstGov 2019-Oct-18 12:38 UT
(server date/time)  
NASA Home Page
Site Manager:   Ryan S. Park
Webmaster  Alan B. Chamberlin